Change the Weather History Date:

Sunday, October 6, 2013

  Actual Average Record
Temperature  
Mean Temperature 53 °F 53 °F  
Max Temperature 72 °F 66 °F 86 °F (2003)
Min Temperature 34 °F 40 °F 21 °F (2005)
Degree Days  
Heating Degree Days 12 12  
Month to date heating degree days 111 69  
Since 1 July heating degree days 249 272  
Cooling Degree Days 0 0  
Month to date cooling degree days 0 0  
Year to date cooling degree days 904 509  
Growing Degree Days 3 (Base 50)    
Moisture  
Dew Point 28 °F    
Average Humidity 50    
Maximum Humidity 82    
Minimum Humidity 17    
Precipitation  
Precipitation 0.00 in 0.02 in 0.14 in (2011)
Month to date precipitation 0.02 0.11  
Year to date precipitation 3.04 7.40  
Sea Level Pressure  
Sea Level Pressure 30.26 in    
Wind  
Wind Speed 14 mph (NE)    
Max Wind Speed 28 mph    
Max Gust Speed 31 mph    
Visibility 10 miles    
Events      
T = Trace of Precipitation, MM = Missing Value Source: NWS Daily Summary

Daily Weather History Graph

Daily Weather History Graph

Search for Another Location

Airport or City:

Trip Planner

Search our weather history database for the weather conditions in past years. The results will help you decide how hot, cold, wet, or windy it might be!

Date:

Astronomy

Oct. 06, 2013 Rise Set
Actual Time 7:41 AM MDT 7:09 PM MDT
Civil Twilight 7:12 AM MDT 7:38 PM MDT
Nautical Twilight 6:40 AM MDT 8:10 PM MDT
Astronomical Twilight 6:07 AM MDT 8:43 PM MDT
Moon 9:33 AM MDT (10/6) 8:08 PM MDT (10/6)
Length of Visible Light 12h 25m
Length of Day
11h 28m
Waxing Crescent, 4% of the Moon is Illuminated
Oct 6
Waxing Crescent
Oct 11
First Quarter
Oct 18
Full
Oct 26
Last Quarter
Nov 3
New

Hourly Weather History & Observations

Time (MDT) Temp. Windchill Dew Point Humidity Pressure Visibility Wind Dir Wind Speed Gust Speed Precip Events Conditions
12:53 AM 43.0 °F 38.2 °F 28.9 °F 58% 30.40 in 10.0 mi East 8.1 mph - N/A   Clear
1:53 AM 42.1 °F 36.6 °F 28.0 °F 58% 30.40 in 10.0 mi East 9.2 mph - N/A   Clear
2:53 AM 41.0 °F 35.2 °F 28.9 °F 62% 30.39 in 10.0 mi ENE 9.2 mph - N/A   Clear
3:53 AM 39.0 °F 32.3 °F 27.0 °F 62% 30.37 in 10.0 mi NE 10.4 mph - N/A   Clear
4:53 AM 39.9 °F 32.9 °F 28.9 °F 65% 30.36 in 10.0 mi NE 11.5 mph - N/A   Clear
5:53 AM 35.1 °F 27.4 °F 28.0 °F 76% 30.37 in 10.0 mi NE 10.4 mph - N/A   Clear
6:53 AM 34.0 °F 24.2 °F 28.0 °F 79% 30.36 in 10.0 mi NE 15.0 mph - N/A   Clear
7:53 AM 36.0 °F 26.7 °F 28.0 °F 73% 30.38 in 10.0 mi NE 15.0 mph - N/A   Clear
8:53 AM 39.9 °F 31.1 °F 28.9 °F 65% 30.38 in 10.0 mi NE 17.3 mph - N/A   Clear
9:53 AM 46.9 °F - 30.0 °F 52% 30.37 in 10.0 mi NE 17.3 mph - N/A   Clear
10:53 AM 53.1 °F - 30.9 °F 43% 30.34 in 10.0 mi NE 18.4 mph - N/A   Clear
11:53 AM 60.1 °F - 30.0 °F 32% 30.32 in 10.0 mi NE 13.8 mph - N/A   Clear
12:53 PM 64.9 °F - 28.0 °F 25% 30.28 in 10.0 mi NE 11.5 mph 20.7 mph N/A   Clear
1:53 PM 68.0 °F - 26.1 °F 21% 30.25 in 10.0 mi ENE 13.8 mph - N/A   Clear
2:53 PM 70.0 °F - 25.0 °F 18% 30.21 in 10.0 mi NNE 12.7 mph - N/A   Clear
3:53 PM 72.0 °F - 25.0 °F 17% 30.19 in 10.0 mi ENE 11.5 mph - N/A   Clear
4:53 PM 72.0 °F - 25.0 °F 17% 30.17 in 10.0 mi NE 12.7 mph - N/A   Clear
5:53 PM 70.0 °F - 28.0 °F 21% 30.15 in 10.0 mi NE 13.8 mph - N/A   Clear
6:53 PM 63.0 °F - 30.0 °F 29% 30.15 in 10.0 mi NE 13.8 mph - N/A   Clear
7:53 PM 60.1 °F - 30.9 °F 33% 30.14 in 10.0 mi NE 16.1 mph - N/A   Clear
8:53 PM 57.0 °F - 30.9 °F 37% 30.12 in 10.0 mi ENE 13.8 mph - N/A   Clear
9:53 PM 55.9 °F - 30.0 °F 37% 30.09 in 10.0 mi ENE 13.8 mph - N/A   Clear
10:53 PM 55.9 °F - 27.0 °F 33% 30.08 in 10.0 mi ENE 13.8 mph - N/A   Clear
11:53 PM 48.0 °F - 30.0 °F 50% 30.07 in 10.0 mi NNE 17.3 mph 25.3 mph N/A   Clear